Flag for Switzerland Weather past 2 weeks in Schaffhausen, Schaffhausen, Switzerland

Now
67 °F

Mild.


Feels Like: 67 °F
Forecast: 36 / 53 °F
Wind: 6 mph from East

Location: Zurich-Kloten

Current Time: Apr 27, 2015 at 4:46:10 PM

Latest Report: Apr 27, 2015 at 4:00 PM


Visibility: N/A

Pressure: 29.47 "Hg

Humidity: 53%

Dew point: 49 °F

Location of SchaffhausenLocation

Historic Weather in Schaffhausen — Graph

°F

Schaffhausen temperature yesterday

Maximum temperature yesterday: 69 °F (at 5:00 PM)
Minimum temperature yesterday: 49 °F (at 7:00 AM)
Average temperature yesterday: 59 °F

Past Weeks' High & Low Weather Summary

 TemperatureHumidityPressure
High74 °F (Apr 15, 4:00 PM)97% (Apr 27, 3:00 AM)30.50 "Hg (Apr 27, 3:00 AM)
Low33 °F (Apr 19, 7:00 AM)20% (Apr 22, 7:00 PM)29.47 "Hg (Apr 27, 3:00 PM)
Average55 °F60%30.10 "Hg
* Reported Apr 12 3:00 PM — Apr 27 3:00 PM, Schaffhausen, Weather by CustomWeather, © 2015

Note: Actual official high and low records may vary slightly from our data, if they occured in-between our weather recording intervals... More about our weather records

Advertising

Schaffhausen weather history for previous 24 hours

 ConditionsComfort  
Time TempWeatherWind HumidityBarometerVisibility
3:00 PM
Mon, Apr 27
68 °FMild.9 mph53%29.47 "HgN/A
2:00 PM66 °FOvercast.9 mph58%29.50 "Hg19 mi
1:00 PM65 °FMild.6 mph59%29.50 "HgN/A
12:00 PM63 °FMild.10 mph63%29.55 "HgN/A
11:00 AM62 °FOvercast.5 mph69%29.57 "Hg16 mi
10:00 AM58 °FCool.2 mph75%29.59 "HgN/A
9:00 AM55 °FCool.1 mph86%29.60 "HgN/A
8:00 AM52 °FOvercast.2 mph93%29.61 "Hg12 mi
7:00 AM49 °FCool.2 mph94%29.62 "HgN/A
6:00 AM49 °FCool.6 mph94%29.62 "HgN/A
5:00 AM49 °FPassing clouds.3 mph94%29.63 "Hg19 mi
4:00 AM50 °FCool.3 mph94%29.64 "HgN/A
3:00 AM49 °FCool.2 mph97%29.65 "HgN/A
2:00 AM49 °FPassing clouds.2 mph95%29.65 "Hg25 mi
1:00 AM53 °FCool.1 mph92%29.66 "HgN/A
12:00 AM53 °FCool.3 mph94%29.66 "HgN/A
11:00 PM
Sun, Apr 26
58 °FPassing clouds.3 mph81%29.65 "Hg25 mi
10:00 PM58 °FCool.7 mph84%29.66 "HgN/A
9:00 PM62 °FCool.3 mph69%29.66 "HgN/A
8:00 PM65 °FOvercast.8 mph56%29.64 "Hg25 mi
7:00 PM66 °FMild.5 mph54%29.63 "HgN/A
6:00 PM68 °FMild.7 mph50%29.64 "HgN/A
5:00 PM69 °FPartly sunny.3 mph49%29.66 "Hg28 mi
4:00 PM65 °FMild.1 mph53%29.70 "HgN/A
Weather by CustomWeather, © 2015

See weather overviewHow to use our weather pages